[Date Prev][Date Next][Thread Prev][Thread Next] - [Date Index][Thread Index][Author Index]
2 Line ISS Keps 1-22
- Subject: [sarex] 2 Line ISS Keps 1-22
- From: "Dave Larsen PhD" <doc@xxxxxxxxxxx>
- Date: Tue, 22 Jan 2002 02:43:24 -0800
ISS
1 25544U 98067A 02022.18499466 .00066845 00000-0 87383-3 0 9882
2 25544 51.6415 66.8546 0006839 340.1944 125.4827 15.57985789181250
----
Via the sarex mailing list at AMSAT.ORG courtesy of AMSAT-NA.
To unsubscribe, send "unsubscribe sarex" to Majordomo@amsat.org
AMSAT Home